Home > Time Zones > World Clock > Weather > Palau > Koror > Past weeks

Flag for Palau Weather past 2 weeks in Koror, Palau

Now
81 °F

Partly cloudy.


Feels Like: 86 °F
Forecast: 79 / 86 °F
Wind: 3 mph from Northeast

Location: Koror / Palau Island

Current Time: Jan 29, 2015 at 10:24:38 PM

Latest Report: Jan 29, 2015 at 9:55 PM


Visibility: 14 mi

Pressure: 29.85 "Hg

Humidity: 84%

Dew point: 75 °F

Location of KororLocation

Historic Weather in Koror — Graph

°F

Koror temperature yesterday

Maximum temperature yesterday: 86 °F (at 10:50 AM)
Minimum temperature yesterday: 75 °F (at 10:54 PM)
Average temperature yesterday: 81 °F

Past Weeks' High & Low Weather Summary

 TemperatureHumidityPressure
High88 °F (Jan 15, 12:50 PM)100% (Jan 18, 3:51 AM)29.97 "Hg (Jan 18, 3:51 AM)
Low75 °F (Jan 18, 3:51 AM)70% (Jan 21, 10:50 AM)28.86 "Hg (Jan 24, 2:54 AM)
Average81 °F85%29.85 "Hg
* Reported Jan 14 8:50 PM — Jan 29 8:50 PM, Koror, Weather by CustomWeather, © 2014

Note: Actual official high and low records may vary slightly from our data, if they occured in-between our weather recording intervals... More about our weather records

Advertising

Koror weather history for previous 24 hours

 ConditionsComfort  
Time TempWeatherWind HumidityBarometerVisibility
8:50 PM
Jan 29
81 °FPartly cloudy.6 mph84%29.85 "Hg14 mi
7:50 PM81 °FPartly cloudy.6 mph84%29.84 "Hg14 mi
6:51 PM81 °FPartly cloudy.8 mph89%29.82 "Hg14 mi
5:54 PM81 °FBroken clouds.7 mph89%29.80 "Hg14 mi
4:50 PM82 °FBroken clouds.12 mph84%29.79 "Hg14 mi
3:50 PM84 °FBroken clouds.13 mph79%29.77 "Hg14 mi
2:50 PM86 °FPartly sunny.14 mph75%29.77 "Hg14 mi
1:50 PM86 °FPartly sunny.10 mph75%29.79 "Hg15 mi
12:55 PM88 °FPartly sunny.10 mph70%29.80 "Hg15 mi
11:50 AM86 °FPartly sunny.9 mph75%29.83 "Hg15 mi
10:50 AM86 °FPartly sunny.10 mph75%29.85 "Hg15 mi
9:50 AM86 °FBroken clouds.8 mph75%29.87 "Hg15 mi
8:50 AM84 °FPartly sunny.7 mph79%29.88 "Hg15 mi
7:50 AM81 °FBroken clouds.No wind89%29.86 "Hg15 mi
6:50 AM77 °FBroken clouds.No wind94%29.84 "Hg15 mi
5:53 AM77 °FPartly cloudy.No wind89%29.82 "Hg15 mi
4:55 AM75 °FPartly cloudy.No wind89%29.81 "Hg15 mi
3:52 AM75 °FPartly cloudy.No wind89%29.80 "Hg15 mi
2:53 AM75 °FPartly cloudy.No wind89%29.78 "Hg15 mi
1:51 AM77 °FPartly cloudy.No wind83%29.81 "Hg15 mi
12:54 AM75 °FPartly cloudy.3 mph94%29.83 "Hg15 mi
11:55 PM
Jan 28
77 °FPartly cloudy.5 mph89%29.84 "Hg15 mi
10:54 PM75 °FPartly cloudy.5 mph94%29.85 "Hg14 mi
Weather by CustomWeather, © 2014

See weather overviewHow to use our weather pages